Location: State Camp
(41.2367°N, 77.7828°W)
Time: 20:11:33
(UTC-04:00)

Daily predictions for brighter satellites

Satellite Brightness Start Highest point End
(mag) Time Altitude Azimuth Time Altitude Azimuth Time Altitude Azimuth
YAOGAN 11 4.3 21:15:09 10° S 21:19:28 75° WSW 21:23:53 10° NNW
COSMOS 2428 3.0 21:14:34 10° NNW 21:20:10 56° ENE 21:25:44 10° SE
Cosmos 1726 3.6 21:18:02 10° NNE 21:21:04 22° ENE 21:24:05 10° SE
Cosmos 1680 Rocket 3.7 21:22:08 10° NNW 21:27:23 77° WSW 21:32:38 10° SSE
Cosmos 1437 Rocket 3.9 21:24:56 10° NNW 21:28:35 43° W 21:32:15 10° SSW
Meteor 1-4 Rocket 4.2 21:26:52 10° NNE 21:29:43 20° ENE 21:32:31 10° ESE
Cosmos 2058 3.2 21:26:51 10° SSE 21:30:47 48° E 21:34:45 10° NNE
Cosmos 2151 2.9 21:27:24 10° S 21:31:36 85° E 21:35:49 10° N
Cosmos 405 4.1 21:32:55 10° NNW 21:36:25 46° W 21:39:52 10° S
NOSS 3-1 (A) 3.4 21:31:27 10° SSW 21:37:11 62° ESE 21:43:33 10° NE
Cosmos 1898 Rocket 3.7 21:33:45 10° S 21:38:43 50° ESE 21:43:45 10° NNE
Terra 4.0 21:37:26 10° E 21:38:58 11° ENE 21:40:31 10° NE
H-2A R/B 4.0 21:35:53 10° E 21:39:03 16° ENE 21:42:15 10° NNE
Cosmos 2237 4.3 21:35:55 10° NNW 21:41:41 88° ENE 21:47:24 10° SSE
Delta 2 Rocket 4.0 21:39:02 10° WSW 21:42:24 30° S 21:44:58 13° SE
Cosmos 1437 3.7 21:41:03 10° SSW 21:44:15 50° WNW 21:47:28 10° N
Nadezhda 2 Rocket 4.4 21:38:17 10° S 21:44:24 81° E 21:50:31 10° N
ALOS 4.4 21:41:13 10° SSW 21:45:01 25° W 21:48:51 10° NW
Aureole 3 4.3 21:40:30 10° S 21:46:51 88° W 21:51:51 10° N
MetOp-B 4.4 21:42:08 10° SSE 21:47:20 56° ENE 21:52:36 10° N
Cosmos 1939 Rocket 3.1 21:43:39 10° S 21:47:33 69° WSW 21:51:26 10° NNW
Cosmos 2219 3.6 21:43:17 10° SSW 21:49:01 71° WNW 21:54:47 10° NNE
Tiangong 1 1.0 21:45:59 10° WSW 21:49:06 86° NNW 21:52:12 10° ENE
Nimbus 7 Rocket 4.4 21:43:33 10° NNE 21:49:26 81° ESE 21:55:18 10° SSW
SPOT 1/Viking Rocket 4.1 21:46:52 12° SE 21:51:16 42° ENE 21:56:07 10° N
Cosmos 2237 Rocket 3.2 21:46:46 10° N 21:51:58 35° ENE 21:56:27 13° ESE
OAO 2 Rocket 3.9 21:49:24 10° WSW 21:54:21 40° S 21:59:05 11° ESE
Cosmos 2150 Rocket 4.1 21:49:25 10° S 21:54:50 73° ESE 22:00:18 10° NNE
Cosmos 2333 4.3 21:51:31 10° NNW 21:57:18 87° ENE 22:02:25 13° SSE
CZ-4 SHROUD 3.1 21:55:57 14° SSE 21:58:34 82° ENE 22:01:42 10° N
Cosmos 2082 4.3 21:53:30 10° S 21:58:39 36° ESE 22:03:48 10° NE
deb Chang Zheng 4 4.3 21:54:24 10° N 21:58:39 56° WNW 22:02:54 10° SSW
ATLAS 2AS CENTAUR R/B 3.4 21:52:42 10° S 21:59:27 40° ESE 22:06:43 10° NE
Sich 1 3.1 21:55:14 10° S 21:59:35 62° E 22:03:55 10° NNE
Cosmos 2360 Rocket 3.7 21:55:45 10° NW 22:00:44 33° WSW 22:05:43 10° SSW
Cosmos 1271 Rocket 3.1 21:59:10 10° N 22:02:56 48° ENE 22:05:32 18° SSE
Cosmos 1626 3.7 22:02:07 17° ESE 22:03:27 20° E 22:06:16 10° NE
ERS-1 Rocket 4.4 22:02:06 10° SSW 22:06:41 35° W 22:11:19 10° NNW
Cosmos 1633 Rocket 3.0 22:03:02 10° S 22:07:23 72° E 22:11:45 10° NNE
YAOGAN 6 2.6 22:04:58 18° SSE 22:07:34 68° ENE 22:11:09 10° N
Iridium 2 4.5 22:05:33 19° SE 22:07:43 34° E 22:11:15 10° NNE
ATLAS 3B R/B 3.8 22:01:23 10° NNW 22:07:46 35° NE 22:13:27 11° ESE
ERBS 2.2 22:05:25 10° SW 22:08:54 72° SE 22:12:23 10° NE
Cosmos 2242 Rocket 3.6 22:09:20 10° N 22:13:49 71° E 22:17:06 18° SSE
Envisat 3.7 22:09:06 10° S 22:14:01 51° W 22:18:59 10° NNW
CZ-4 R/B 4.2 22:10:36 10° NNE 22:15:20 47° E 22:18:51 17° SSE
CZ-4C R/B 4.2 22:16:15 21° ESE 22:17:40 28° ENE 22:20:42 10° N
Cosmos 1703 3.2 22:14:44 16° S 22:17:41 63° E 22:21:34 10° NNE
SL-14 R/B 3.7 22:15:20 10° SSW 22:19:16 65° W 22:23:16 10° N
USA 245 1.8 22:21:00 44° SSE 22:21:35 74° ENE 22:23:50 10° N
NOSS 3-1 (C) 4.3 22:16:29 10° SW 22:22:16 53° NW 22:28:42 10° NNE
USA 32 4.0 22:23:24 10° N 22:28:41 84° E 22:32:31 19° S
Cosmos 220 Rocket 4.2 22:24:43 10° SSW 22:29:06 75° WNW 22:33:34 10° NNE
Cosmos 2227 Rocket 2.1 22:24:46 10° SSW 22:30:22 69° ESE 22:36:01 10° NNE
Cosmos 1300 4.2 22:28:51 10° NNW 22:32:20 33° W 22:35:46 10° SSW
Cosmos 1937 Rocket 3.7 22:27:31 10° SSW 22:32:44 74° WNW 22:37:57 10° NNE
Cosmos 990 Rocket 3.9 22:33:28 10° SSW 22:38:36 89° ESE 22:43:47 10° NNE
H-2A R/B 4.5 22:38:26 10° SW 22:41:40 19° W 22:44:56 10° NW
Cosmos 292 Rocket 4.4 22:38:25 10° NNW 22:43:00 48° WSW 22:46:01 20° S
DELTA 2 DEB (DPAF) 4.2 22:41:00 30° SSE 22:43:08 69° ENE 22:47:37 10° N
SPOT 5 4.3 22:40:11 10° SSW 22:44:18 31° W 22:48:39 10° NNW
SL-16 R/B 2.9 22:42:23 10° NNW 22:47:47 43° ENE 22:50:40 25° ESE
ARGOS 3.3 22:44:45 22° S 22:48:19 71° WSW 22:53:42 10° NNW
CZ-4B R/B 4.1 22:43:30 10° N 22:48:41 60° WNW 22:53:44 10° SSW
Cosmos 2333 Rocket 2.4 22:46:48 10° NNW 22:52:32 70° WSW 22:55:43 27° S
Cosmos 1455 2.1 22:50:45 10° N 22:54:34 87° W 22:55:49 42° S
OTV 4 2.0 22:53:17 10° WSW 22:54:46 24° SW 22:54:46 24° SW
Cosmos 1726 4.3 22:53:22 10° NW 22:56:20 22° W 22:59:13 10° SW
Cosmos 2297 Rocket 2.1 22:51:53 14° SSW 22:56:49 79° ESE 23:02:30 10° NNE
Cosmos 1346 3.8 22:57:45 33° SW 22:58:45 49° WNW 23:01:43 10° N
Cosmos 2219 Rocket 2.9 22:54:35 10° NW 22:59:53 45° WSW 23:03:07 22° SSW
Landsat 7 3.8 22:57:59 33° S 23:00:09 84° W 23:04:56 10° NNW
NOSS 2-3 (C) 4.3 23:00:19 36° SSE 23:01:23 41° ESE 23:06:31 10° NE
Cosmos 1470 Rocket 4.0 22:59:12 20° SSW 23:02:04 57° W 23:06:20 10° N
Cosmos 1933 Rocket 4.0 23:00:00 20° SSW 23:02:58 59° W 23:07:24 10° N
Cosmos 44 Rocket 3.8 23:04:46 38° SE 23:05:47 42° ESE 23:10:42 10° NE
SL-08 RB Rocket 4.3 23:05:02 26° SSW 23:07:13 48° W 23:11:35 10° NNW
Cosmos 1703 Rocket 4.0 23:03:10 10° N 23:07:23 46° ENE 23:08:18 40° ESE
Lacrosse 4 Rocket 1.8 23:03:13 10° NNW 23:07:38 60° ENE 23:08:55 41° ESE
Nadezhda 1 Rocket 4.2 23:02:28 10° NNW 23:08:32 66° W 23:12:18 24° S
Cosmos 1269 Rocket 4.0 23:05:15 10° NNW 23:10:35 74° ENE 23:12:32 40° SE
Cosmos 1933 3.5 23:09:03 10° N 23:13:04 58° E 23:13:41 51° ESE
Terra 1.8 23:14:22 42° S 23:16:00 84° WSW 23:20:47 10° NNW
H-2A R/B 2.2 23:15:25 35° S 23:17:47 74° WSW 23:23:15 10° NNW
COSMOS 2455 2.8 23:13:22 10° NNW 23:19:26 87° ENE 23:21:50 39° SSE
NOSS 2-3 (D) 3.9 23:21:10 43° S 23:22:33 60° ESE 23:28:01 10° NE
Tiangong 1 1.6 23:22:43 10° WNW 23:25:23 56° NW 23:25:23 56° NW
Cosmos 1125 Rocket 3.5 23:23:43 28° SSW 23:26:37 81° WNW 23:31:58 10° NNE
Cosmos 1048 Rocket 4.0 23:21:22 10° NNW 23:26:46 82° ENE 23:28:25 46° SSE
Cosmos 2221 Rocket 3.5 23:26:10 10° N 23:30:44 80° E 23:31:33 59° SSE
Cosmos 1709 Rocket 3.9 23:27:42 32° S 23:30:46 84° W 23:36:54 10° N
Spot 4 3.9 23:29:25 47° S 23:30:47 78° WSW 23:35:40 10° NNW
Cosmos 2237 Rocket 3.3 23:30:53 10° NW 23:35:59 35° WSW 23:38:17 25° SSW
Cosmos 372 Rocket 3.9 23:36:14 49° S 23:37:38 74° ESE 23:42:52 10° NNE
Cosmos 389 Rocket 2.9 23:35:04 10° N 23:38:11 53° NE 23:38:11 53° NE
Cosmos 1626 4.2 23:36:48 16° WSW 23:38:43 24° WNW 23:41:49 10° NNW
OAO 2 Rocket 4.0 23:33:48 10° WSW 23:38:02 38° SSW 23:38:02 38° SSW
Meteor 1-26 Rocket 4.2 23:39:13 10° N 23:44:53 79° E 23:46:26 50° SSE
Cosmos 1892 4.3 23:49:55 25° ENE 23:49:55 25° ENE 23:52:14 10° NNE
ATLAS 2AS CENTAUR R/B 3.8 23:42:55 10° WSW 23:50:17 52° NW 23:58:11 10° NNE
H-2A R/B 4.2 23:49:08 10° NE 23:51:48 22° ENE 23:51:48 22° ENE
